Location: Alpha Ridge Park
(39.3209°N, 76.9128°W)
Time: 23:22:33
(UTC-04:00)

Vanguard 2 Rocket - Pass Details

Date: 26 May 2019
Orbit: 554 x 3326 km, 32.9° (Epoch: 17 June)

Event Time Altitude Azimuth Distance (km) Brightness Sun altitude
Rises 02:16:44 0° 186° (S) 6,960 - -27.3°
Reaches altitude 10° 02:24:10 10° 169° (SSE) 6,198 - -26.8°
Exits shadow 02:27:37 14° 159° (SSE) 5,938 10.6 -26.6°
Maximum altitude 02:34:48 17° 136° (SE) 5,654 10.7 -26.0°
Drops below altitude 10° 02:44:56 10° 104° (ESE) 5,963 11.2 -25.2°
Sets 02:51:37 0° 87° (E) 6,607 11.7 -24.6°
